Cloud_Cover
32 12 8 20 12 0 0 0 0 0 0 0 0 0 0 0 0 0 0 0 0 0 0 0 0 0 0 0 0 0 0 0 0 0 0 0 0 0 0 0 0 0 0 0 0 0 0 0 0 0 0 0 0 0 0 0 0 0 0 0 12 48 92 64 32 12 12 24 12 8 8 20 12 8 0 0 0 0 0 0 0 0 0 0 0 0 0 0 0 0 0 0 0 0 0 0 0 0 0 0 0 0 0
48 56 76 32 8 0 0 0 0 0 0 0 0 0 0 0 0 0 0 0 0 0 0 0 0 0 0 0 0 0 0 0 0 0 0 0 0 0 0 0 0 0 0 0 0 0 0 0 0 0 0 0 0 0 0 0 0 0 0 0 0 20 68 68 44 20 32 32 20 0 8 20 20 20 0 0 0 0 0 0 0 0 0 0 0 0 0 0 0 0 0 0 0 0 0 0 0 0 0 0 0 0 0
36 36 32 12 8 8 0 0 0 0 0 0 0 0 0 0 0 0 0 0 0 0 0 0 0 0 0 0 0 0 0 0 0 0 0 0 0 0 0 0 0 0 0 0 0 0 0 0 0 0 8 0 0 0 0 0 0 0 0 0 0 8 36 56 48 44 48 36 32 24 32 20 24 32 36 8 0 0 0 0 0 0 0 0 0 0 0 0 0 0 0 0 0 0 0 0 0 0 0 0 0 0 0
32 20 8 8 32 36 0 0 0 0 0 0 0 0 0 0 0 0 0 0 0 0 0 0 0 0 0 0 0 0 0 0 0 0 0 0 0 0 0 0 0 0 0 0 0 0 0 0 0 0 0 0 0 0 0 0 0 0 0 0 0 0 0 12 36 44 12 32 20 20 44 24 20 20 20 0 0 0 0 0 0 0 0 0 0 0 0 0 0 0 0 0 0 0 0 0 0 0 0 0 0 0 8
12 12 12 36 56 44 0 0 0 0 0 0 0 0 0 0 0 0 0 0 0 0 0 0 0 0 0 0 0 0 0 0 0 0 0 0 0 0 0 0 0 0 0 0 0 0 0 0 0 0 0 0 0 0 0 0 0 0 0 0 0 0 0 0 8 8 0 12 20 24 24 8 0 0 0 0 0 0 0 0 0 0 0 0 0 0 0 0 0 0 0 0 0 0 0 0 0 0 0 0 0 0 0
8 8 8 24 20 0 0 0 0 0 0 0 0 0 0 0 0 0 0 0 0 0 0 0 0 0 0 0 0 0 0 0 0 0 0 0 0 0 0 0 0 0 0 0 0 0 0 0 0 0 0 0 0 0 0 0 0 0 0 0 0 0 0 0 0 0 0 0 0 0 0 0 0 0 0 0 0 0 0 0 0 0 0 0 0 0 0 0 0 0 0 0 0 0 0 0 0 0 0 0 0 0 0
0 0 8 12 8 0 0 0 0 0 0 0 0 0 0 0 0 0 0 0 0 0 0 0 0 0 0 0 0 0 0 0 0 0 0 0 0 0 0 0 0 0 0 0 0 0 0 0 0 0 0 0 0 0 0 0 0 0 0 0 0 0 0 0 0 0 0 0 0 0 0 0 0 0 0 0 0 0 0 0 0 0 0 0 0 0 0 0 0 0 0 0 0 0 0 0 0 0 0 0 0 0 0
0 8 12 8 0 0 0 0 0 0 0 0 0 0 0 0 0 0 0 0 0 0 0 0 0 0 0 0 0 0 0 0 0 0 0 0 0 0 0 0 0 0 0 0 0 0 0 0 0 0 0 0 0 0 0 0 0 0 0 0 0 0 0 0 0 0 0 0 0 0 0 0 0 0 0 0 0 0 0 0 0 0 0 0 0 0 0 0 0 0 0 0 0 0 0 0 0 0 0 0 0 0 0
0 0 20 12 8 0 0 0 0 0 0 0 0 0 0 0 0 0 0 0 0 0 0 0 0 0 0 0 0 0 0 0 0 0 0 0 0 0 0 0 0 0 0 0 0 0 0 0 0 0 0 0 0 0 0 0 0 0 0 0 0 0 0 0 0 0 0 0 0 0 0 0 0 0 0 0 0 0 0 0 0 0 0 0 0 0 0 0 0 0 0 0 0 0 0 0 0 0 0 0 0 0 0
0 0 12 8 0 0 0 0 0 0 0 0 0 0 0 0 0 0 0 0 0 0 0 0 0 0 0 0 0 0 0 0 0 0 0 0 0 0 0 0 0 0 0 0 0 0 0 0 0 0 0 0 0 0 0 0 0 0 0 0 8 8 8 12 8 0 0 0 0 0 0 0 0 0 0 0 0 0 0 0 0 0 0 0 0 0 0 0 0 0 0 0 0 0 0 0 0 0 0 0 0 0 0
0 0 0 0 0 0 0 0 0 0 0 0 0 0 0 0 0 0 0 0 0 0 0 0 0 0 0 0 0 0 0 0 0 0 0 0 0 0 0 0 0 0 0 0 0 0 0 0 0 0 0 0 0 0 0 0 0 0 0 0 0 8 0 12 12 8 0 0 0 0 0 0 0 0 0 0 0 0 0 0 0 0 0 0 0 0 0 0 0 0 0 0 0 0 0 0 0 0 0 0 0 0 0
0 0 0 0 0 0 0 0 0 0 0 0 0 0 0 0 0 0 0 0 0 0 0 0 0 0 0 0 0 0 0 0 0 0 0 0 0 0 0 0 0 0 0 0 0 0 0 0 0 0 0 0 0 0 0 0 0 0 0 0 8 8 0 0 0 0 0 0 0 0 0 0 0 0 0 0 0 0 0 0 0 0 0 0 0 0 0 0 0 0 0 0 0 0 0 0 0 0 0 0 0 0 0
0 0 0 0 0 0 0 0 0 0 0 0 0 0 0 0 0 0 0 0 0 0 0 0 0 0 0 0 0 0 0 0 0 0 0 0 0 0 0 0 0 0 0 8 0 0 0 0 0 0 0 0 0 0 0 0 0 0 0 0 8 12 8 0 0 0 0 0 0 0 0 0 0 0 0 0 0 0 0 0 0 0 0 0 0 0 0 0 0 0 0 0 0 0 0 0 0 0 0 0 0 0 0
0 0 0 0 0 0 0 0 0 0 0 0 0 0 0 0 0 0 0 0 0 0 0 0 0 0 0 0 0 0 0 0 0 0 0 0 0 0 0 0 0 0 0 0 0 0 0 0 0 0 0 0 0 0 0 0 0 0 0 0 0 12 24 8 0 0 0 0 0 0 0 0 0 0 0 0 0 0 0 0 0 0 0 0 0 0 0 0 0 0 0 0 0 0 0 0 0 0 0 0 0 0 0
0 0 0 0 0 0 0 0 0 0 0 0 0 0 0 0 0 0 0 0 0 0 0 0 0 0 0 0 0 0 0 0 0 0 0 0 0 0 0 0 0 0 0 0 0 0 0 0 0 0 0 0 0 0 0 0 0 0 0 0 0 8 32 12 0 0 0 0 0 0 0 0 0 0 0 0 0 0 0 0 0 0 0 0 0 0 0 0 0 0 0 0 0 0 0 0 0 0 0 0 0 0 0
0 0 0 0 0 0 0 0 0 0 0 0 0 0 0 0 0 0 0 0 0 0 0 0 0 0 0 0 0 0 0 0 0 0 0 0 0 0 0 0 0 0 0 0 0 0 0 0 0 0 0 0 0 0 0 0 0 0 0 0 0 0 8 12 12 8 0 0 0 0 0 0 0 0 0 0 0 0 0 0 0 0 0 0 0 0 0 0 0 0 0 0 0 0 0 0 0 0 0 0 0 0 0
0 0 0 0 0 0 0 0 0 0 0 0 0 0 0 0 0 0 0 0 0 0 0 0 0 0 0 0 0 0 0 0 0 0 0 0 0 0 0 0 0 0 0 0 0 0 0 0 0 0 0 0 0 0 0 0 0 0 0 0 0 0 0 8 12 20 8 8 8 8 12 8 0 8 8 0 0 0 0 0 0 0 0 0 0 0 0 0 0 0 0 0 0 0 0 0 0 0 0 0 0 0 0
0 0 0 0 0 0 0 0 0 0 0 0 0 0 0 0 0 0 0 0 0 0 0 0 0 0 0 0 0 0 0 0 0 0 0 0 0 0 0 0 0 0 0 0 0 0 0 0 0 0 0 0 0 0 0 0 0 0 0 0 0 0 0 0 20 24 12 12 20 32 32 24 20 12 24 8 0 0 0 0 0 0 0 0 0 0 0 0 0 0 0 0 0 0 0 0 0 0 0 0 0 0 0
0 0 0 0 0 0 0 0 0 0 0 0 0 0 0 0 0 0 0 0 0 0 0 0 0 0 0 0 0 0 0 0 0 0 0 0 0 0 0 0 0 0 0 0 0 0 0 0 0 0 0 0 0 0 0 0 0 0 0 0 0 0 0 0 8 24 32 24 32 44 56 48 44 36 32 12 8 0 0 0 0 0 0 0 0 0 0 0 0 0 0 0 0 0 0 0 0 0 0 0 0 0 0
0 0 0 0 0 0 0 0 0 0 0 0 0 0 0 0 0 0 0 0 0 0 0 0 0 0 0 0 0 0 0 0 0 0 0 0 0 0 0 0 0 0 0 0 0 0 0 0 0 0 0 0 0 0 0 0 0 0 0 0 0 0 0 0 0 8 24 32 36 48 64 36 32 32 36 24 12 0 0 0 0 0 0 0 0 0 0 0 0 0 0 0 0 0 0 0 0 0 0 0 0 0 0
0 0 0 0 0 0 0 0 0 0 0 0 0 0 0 0 0 0 0 0 0 0 0 0 0 0 0 0 0 0 0 0 0 0 0 0 0 0 0 0 0 0 0 0 0 0 0 0 0 0 0 0 0 0 0 0 0 0 0 0 0 0 0 0 0 0 0 12 48 80 80 24 8 12 20 32 20 0 0 0 0 0 0 0 0 0 0 0 0 0 0 0 0 0 0 0 0 0 0 0 0 0 0
0 0 0 0 0 0 0 0 0 0 0 0 0 0 0 0 0 0 0 0 0 0 0 0 0 0 0 0 0 0 0 0 0 0 0 0 0 0 0 0 0 0 0 0 0 0 0 0 0 0 0 0 0 0 0 0 0 0 0 0 0 0 0 0 0 0 0 0 32 68 92 44 12 8 8 20 20 12 8 8 0 0 0 0 0 0 0 0 0 0 0 0 0 0 0 0 0 0 0 0 0 0 0
0 0 0 0 0 0 0 0 0 0 0 0 0 0 0 0 0 0 0 0 0 0 0 0 0 0 0 0 0 0 0 0 0 0 0 0 0 0 0 0 0 0 0 0 0 0 0 0 0 0 0 0 0 0 0 0 0 0 0 0 0 0 0 0 0 0 0 0 8 24 56 36 20 20 20 20 24 32 32 20 12 12 0 0 0 0 0 0 0 0 0 0 0 0 0 0 0 0 0 0 0 0 0
0 0 0 0 0 0 0 0 0 0 0 0 0 0 0 0 0 0 0 0 0 0 0 0 0 0 0 0 0 0 0 0 0 0 0 0 0 0 0 0 0 0 0 0 0 0 0 0 0 0 0 0 0 0 0 0 0 0 0 0 0 0 0 0 0 0 0 0 0 0 8 8 12 32 48 24 32 48 68 48 36 24 8 0 0 0 0 0 0 0 0 0 0 0 0 0 0 0 0 0 0 0 0
0 0 0 0 0 0 0 0 0 0 0 0 0 0 0 0 0 0 0 0 0 0 0 0 0 0 0 0 0 0 0 0 0 0 0 0 0 0 0 0 0 0 0 0 0 0 0 0 0 0 0 0 0 0 0 0 0 0 0 0 0 0 0 0 0 0 0 0 0 0 0 0 12 36 88 36 32 48 88 64 48 44 24 12 0 0 0 0 0 0 8 0 0 0 0 0 0 0 0 0 0 0 0
8 8 8 8 8 8 0 0 0 0 0 0 0 0 0 0 0 8 0 0 0 0 0 0 0 0 0 0 0 0 0 0 0 0 0 0 0 0 0 0 0 0 0 0 0 0 0 0 0 0 0 0 0 0 0 0 0 0 0 0 0 0 0 0 0 0 0 0 0 0 0 0 0 12 24 24 56 76 56 64 56 44 32 12 0 0 0 0 8 8 8 0 0 0 0 0 0 0 0 0 0 0 0
8 8 8 8 8 8 8 8 8 0 0 0 0 0 8 8 8 8 8 0 0 0 0 0 0 0 0 0 0 0 0 0 0 0 0 0 0 0 0 0 0 0 0 0 0 0 0 0 0 0 0 0 0 0 0 0 0 0 0 0 0 0 0 0 0 0 0 0 0 0 0 0 0 0 0 8 20 32 44 36 44 44 8 0 0 0 0 8 8 8 0 0 0 0 0 0 0 0 0 0 0 0 0
8 8 8 8 8 8 8 8 8 8 8 0 0 0 8 8 8 8 0 0 0 0 8 0 0 0 0 0 0 0 0 0 0 0 0 0 0 0 0 0 0 0 0 0 0 0 0 0 0 0 0 0 0 0 0 0 0 0 0 0 0 0 0 0 0 0 0 0 0 0 0 0 0 0 0 0 0 8 20 48 64 56 32 8 0 0 8 8 8 8 0 0 0 0 0 0 0 0 0 0 0 0 0
12 8 8 8 8 8 8 8 8 8 8 0 0 0 0 0 0 0 0 0 0 0 0 0 0 0 0 0 0 0 0 0 0 0 0 0 0 0 0 0 0 0 0 0 0 0 0 0 0 0 0 0 0 0 0 0 0 0 0 0 0 0 0 0 0 0 0 0 0 0 0 0 0 0 0 0 0 0 8 8 24 44 36 44 32 24 20 20 8 0 0 0 0 0 0 0 0 0 0 0 0 0 0
8 8 8 8 12 8 8 0 0 0 8 0 0 0 0 0 0 0 0 0 0 0 0 0 0 8 8 8 8 8 0 0 0 0 0 0 0 0 0 0 0 0 0 0 0 0 0 0 0 0 0 0 0 0 0 0 0 0 0 0 0 0 0 0 0 0 0 0 0 0 0 0 0 0 0 0 0 0 0 24 36 44 36 80 88 80 48 56 36 20 0 0 0 0 0 0 0 0 0 0 0 0 0
0 0 0 0 8 8 8 8 8 0 0 0 0 0 0 0 0 0 0 0 0 0 0 0 0 8 8 8 8 8 8 0 0 0 0 0 0 0 0 0 0 0 0 0 0 0 0 0 0 0 0 0 0 0 0 0 0 0 0 0 0 0 0 0 0 0 0 0 0 0 0 0 0 0 0 0 0 0 0 12 24 56 92 92 92 92 80 80 64 44 24 8 0 0 0 0 0 0 0 0 0 0 0
0 0 0 0 0 0 0 8 8 8 8 0 0 0 0 0 0 0 0 0 0 0 0 0 0 0 8 8 8 8 8 0 0 0 0 0 0 0 0 0 0 0 0 0 0 0 0 0 0 0 0 0 0 0 0 0 0 0 0 0 0 0 0 0 0 0 0 0 0 0 0 0 0 0 0 0 0 0 0 24 44 48 24 76 92 92 92 92 88 80 64 88 48 8 0 0 0 0 0 0 0 0 0
0 0 0 0 0 0 0 0 0 0 0 8 8 0 0 0 0 0 0 0 0 0 0 0 0 0 0 8 8 8 0 8 0 0 0 0 0 0 0 0 0 0 0 0 0 0 0 0 0 0 0 0 0 0 0 0 0 0 0 0 0 0 0 0 0 0 0 0 0 0 0 0 0 0 0 0 0 0 12 32 36 32 20 20 48 88 92 92 88 80 92 92 80 48 12 8 8 0 0 0 0 0 0
0 0 0 0 0 0 0 0 0 0 0 0 0 0 0 0 0 0 8 0 0 0 0 0 0 0 0 8 8 8 0 0 0 0 0 0 0 0 0 0 0 0 0 0 0 0 0 0 0 0 0 0 0 0 0 0 0 0 0 0 0 0 0 0 0 0 0 0 0 0 0 0 0 0 0 0 0 8 36 36 32 24 12 8 12 32 64 68 76 76 68 88 92 88 56 44 32 20 12 12 8 0 0
0 0 0 0 0 0 0 0 0 0 0 0 0 0 0 0 8 8 8 8 8 8 0 0 0 0 8 8 8 8 0 0 0 0 0 0 0 0 0 0 0 0 0 0 0 0 0 0 0 0 0 0 0 0 0 0 0 0 0 0 0 0 0 0 0 0 0 0 0 0 0 0 0 0 0 0 0 12 32 24 24 12 8 8 12 20 32 44 64 76 68 80 88 92 92 92 76 56 48 56 36 12 0
0 0 0 0 0 0 0 0 0 0 0 0 0 0 0 0 0 8 8 8 8 8 8 8 0 0 8 8 8 8 0 0 0 0 0 0 8 0 0 0 0 0 0 0 0 0 0 0 0 0 0 0 0 0 0 0 0 0 0 0 0 0 0 0 0 0 0 0 0 0 0 0 0 8 8 20 32 36 32 20 12 8 0 8 8 8 8 8 32 64 76 88 88 80 92 80 88 80 68 64 56 36 12
0 0 0 0 0 0 0 0 0 0 0 0 0 0 0 0 0 8 8 8 8 8 8 8 8 8 8 8 8 8 8 8 0 0 0 8 8 8 8 8 0 0 0 0 0 0 0 0 0 0 0 0 0 0 0 0 0 0 0 0 0 0 0 0 0 0 0 0 0 0 0 0 12 32 36 48 48 36 20 12 8 8 8 8 0 0 0 0 0 12 64 68 68 68 68 64 56 64 76 68 56 44 32
0 0 0 0 0 0 0 0 0 0 0 0 0 0 0 0 0 8 8 8 8 8 8 8 8 8 8 8 8 0 0 8 8 8 8 8 8 8 8 0 0 0 0 0 0 0 0 0 0 0 0 0 0 0 0 0 0 0 0 0 0 0 0 0 0 0 0 0 0 0 8 12 32 48 48 48 44 32 12 8 8 8 12 8 8 0 0 0 0 0 0 12 36 48 48 44 48 64 80 80 64 44 20
8 8 8 0 0 0 0 0 0 0 0 0 0 0 0 8 8 8 8 8 8 8 8 8 8 8 8 8 8 8 8 8 8 8 8 8 8 0 0 0 0 0 0 0 0 0 0 0 0 0 0 0 0 0 0 0 0 0 8 12 12 12 20 12 0 0 0 0 8 20 24 24 32 44 48 44 32 24 8 8 12 12 8 8 8 0 0 0 0 0 0 0 12 24 20 20 24 36 68 68 64 44 12
8 8 8 8 0 0 0 0 0 0 0 8 12 12 12 12 12 8 8 8 8 8 8 8 8 8 8 8 8 12 12 12 12 8 8 0 0 0 0 0 0 0 0 0 0 0 0 0 0 0 0 0 0 0 0 0 8 8 20 32 36 44 68 48 24 8 0 20 24 32 24 32 36 44 56 44 24 12 12 12 12 12 12 8 8 0 0 0 0 0 0 0 0 0 8 0 8 12 12 20 36 48 36
0 0 0 0 0 0 0 0 0 0 8 12 20 20 20 20 12 8 8 8 8 8 8 8 8 8 12 12 12 12 12 12 8 8 0 0 0 0 0 0 0 0 8 8 8 0 0 0 0 0 0 0 0 0 0 12 20 24 48 56 64 68 92 68 44 24 12 44 44 32 24 32 44 56 64 48 32 20 12 12 12 12 8 8 0 0 0 0 0 0 0 0 0 0 0 0 0 8 12 8 24 48 68
0 0 0 0 0 0 8 8 8 8 8 12 20 20 20 12 12 12 8 8 8 8 8 8 12 12 12 12 20 12 12 8 0 0 0 0 0 0 0 0 0 0 8 8 8 0 0 0 0 0 0 0 0 0 0 12 24 48 88 80 80 76 64 48 44 32 32 64 64 48 36 36 48 64 64 48 32 24 20 12 12 12 8 8 0 0 0 0 0 0 0 0 0 0 0 0 0 8 8 8 8 32 76
0 0 0 0 0 8 8 8 8 8 8 12 20 20 20 12 12 12 12 12 12 12 8 12 12 12 20 20 12 12 8 0 0 8 8 8 8 8 8 8 0 0 0 0 0 0 0 0 0 0 0 0 0 0 0 0 32 76 92 92 76 44 20 20 32 48 68 76 76 68 56 56 56 48 44 36 24 12 12 12 8 8 12 12 8 8 8 8 8 8 0 8 0 0 0 0 0 0 8 8 12 32 68
0 0 0 0 8 8 8 8 8 8 8 8 8 12 12 12 12 20 20 20 20 20 20 20 12 12 12 12 8 8 8 8 20 24 24 20 20 20 12 12 8 0 0 0 0 0 0 0 0 0 0 0 0 0 0 0 20 56 92 88 56 32 44 56 68 80 92 76 64 56 44 36 32 24 24 20 12 12 12 20 12 12 20 12 12 8 8 8 8 12 12 8 8 8 0 0 0 0 8 8 8 20 44
0 0 0 0 8 8 8 8 8 8 8 8 8 12 12 20 24 24 24 24 24 20 20 12 12 12 20 32 32 24 32 32 32 24 20 12 12 12 12 12 8 8 8 0 0 0 0 0 0 0 0 0 0 0 0 0 8 12 44 36 24 24 44 76 92 88 48 48 44 32 20 12 12 12 12 12 20 24 24 24 20 20 20 12 12 8 8 8 12 20 12 12 8 8 8 8 8 8 8 8 0 8 8
0 0 0 0 8 8 0 8 8 8 8 12 12 20 20 24 32 32 24 20 20 24 48 56 56 56 64 68 56 44 44 24 12 8 8 8 8 8 8 8 8 8 8 0 0 0 0 0 0 0 8 0 0 0 8 8 8 12 12 12 20 20 24 36 48 48 12 20 12 12 12 12 12 12 20 20 24 32 24 24 20 20 12 12 12 8 8 8 12 20 12 12 12 12 8 12 12 12 12 8 0 0 0
0 0 0 0 0 0 8 8 8 12 12 24 32 32 32 24 24 24 24 24 44 64 80 80 80 80 80 68 44 24 20 8 0 0 8 0 0 0 8 8 0 0 0 0 0 0 0 0 0 8 8 8 8 12 12 12 12 12 12 12 20 24 32 24 24 20 12 8 8 8 8 12 20 20 20 32 32 24 20 20 20 12 8 12 12 12 8 8 12 20 20 20 12 12 12 12 12 12 12 8 0 0 0
8 0 0 0 8 12 24 20 32 44 64 64 64 64 64 64 56 56 64 64 76 88 88 88 76 64 56 44 32 20 8 8 0 0 0 0 0 0 0 0 0 0 0 0 0 0 0 0 0 0 0 12 12 12 20 20 12 12 20 20 20 20 24 20 20 12 12 12 12 12 12 12 20 20 24 32 24 20 20 12 12 12 8 12 12 12 8 8 12 20 20 20 20 12 12 20 20 12 12 8 8 0 0
36 44 44 32 44 64 76 68 76 76 80 80 80 80 80 80 80 80 80 88 80 68 64 56 48 44 36 32 24 20 12 12 12 8 0 0 0 0 0 0 0 0 0 0 0 0 0 0 0 0 8 12 12 12 12 8 8 8 12 20 12 12 12 12 12 12 12 12 12 12 12 8 12 12 20 24 20 12 12 12 8 8 8 12 12 12 8 12 20 20 20 20 20 20 20 20 20 12 12 8 8 0 0
76 68 68 76 80 88 88 88 88 88 88 80 80 80 80 80 80 80 80 64 56 48 48 48 44 36 36 32 32 24 24 24 20 20 20 8 0 0 0 0 0 0 0 0 0 0 0 0 8 12 12 8 12 12 0 0 0 0 8 8 8 0 8 8 8 12 12 12 12 8 8 8 8 12 12 12 12 12 12 8 8 8 12 12 12 12 12 12 20 20 20 20 20 20 20 20 12 12 8 8 0 0 0
80 80 88 88 88 88 88 88 88 88 88 80 80 76 68 68 64 64 56 64 64 64 64 64 56 44 36 32 32 24 24 20 24 32 32 12 8 0 0 0 0 0 0 0 0 0 0 8 8 8 8 8 8 12 12 0 0 0 0 0 0 0 0 8 8 8 12 12 8 8 8 12 12 12 12 12 12 8 8 8 8 12 12 12 12 12 20 20 20 24 20 20 20 20 20 20 12 8 8 8 0 0 0
80 80 88 88 88 92 92 92 88 88 88 88 80 76 68 64 64 64 64 56 56 56 68 76 68 56 44 36 32 24 24 12 20 32 32 32 24 12 8 8 8 8 0 0 0 0 8 8 8 12 12 12 20 20 24 12 8 0 0 0 0 0 0 0 8 8 12 12 12 12 8 12 12 12 12 12 12 8 8 8 8 8 12 12 12 20 20 32 32 24 24 24 24 20 20 20 12 8 8 8 8 0 0
64 68 76 80 88 88 92 92 88 88 88 80 80 80 80 80 76 68 56 48 48 48 48 64 68 68 64 64 48 36 36 32 32 32 24 32 32 24 0 8 8 8 0 8 8 8 8 8 8 12 32 24 24 32 24 24 12 0 0 0 0 0 0 0 8 12 20 12 12 12 12 8 12 12 12 12 8 8 0 8 8 8 8 12 12 20 24 36 32 24 24 24 24 24 20 12 12 8 8 8 0 0 0
44 56 64 64 76 80 80 88 92 88 76 76 76 76 76 80 76 68 64 48 44 36 32 44 56 68 88 88 76 64 48 36 44 56 56 48 44 32 20 8 0 0 0 8 8 8 8 8 8 20 56 44 36 36 36 32 24 20 8 12 8 0 8 20 20 24 36 24 12 12 8 8 8 8 8 8 8 0 0 0 8 8 8 12 12 12 24 44 44 36 32 24 24 24 20 20 12 12 8 8 0 0 0
36 44 48 56 64 68 68 76 80 80 76 76 76 68 64 64 64 64 56 48 36 32 32 36 56 76 88 88 64 44 36 32 36 48 68 68 64 64 64 24 8 8 8 8 8 8 8 0 0 20 56 56 48 44 36 44 44 36 20 32 20 8 20 20 56 80 56 32 20 8 8 8 8 8 8 8 0 0 0 0 0 8 8 12 12 12 20 36 44 36 36 32 24 24 24 20 20 12 8 8 0 0 0
48 48 48 48 56 56 64 64 64 68 80 80 76 68 68 64 64 64 56 44 36 32 32 36 48 64 68 76 64 48 32 44 36 32 32 32 44 48 24 24 20 20 12 12 8 8 0 0 0 8 8 12 20 32 44 48 48 44 44 56 32 8 12 12 56 88 76 48 24 12 8 12 8 8 8 0 0 0 0 0 0 8 8 12 12 12 20 32 36 36 36 32 32 32 20 12 12 12 8 0 0 0 0
56 56 56 56 56 48 48 56 56 64 68 76 80 76 68 64 64 56 48 36 32 24 24 32 44 56 56 76 76 68 56 44 32 20 12 20 20 12 12 12 20 24 24 24 32 24 8 8 20 24 12 12 48 80 56 48 44 44 64 48 32 20 8 8 32 56 68 48 32 20 20 20 12 0 0 0 0 0 0 0 8 8 8 8 8 12 20 32 36 36 32 32 32 24 20 12 8 8 0 0 0 0 0
64 64 56 56 56 56 56 48 48 56 64 64 64 68 68 68 64 48 44 36 24 20 20 24 32 48 76 88 92 88 76 48 32 12 8 12 12 12 12 12 20 32 32 32 36 32 24 56 68 64 24 32 44 56 56 48 32 32 56 44 32 20 8 8 8 8 8 24 24 20 8 0 0 0 0 0 0 0 0 0 8 8 8 8 8 12 24 24 32 32 24 24 24 20 8 8 0 0 0 0 0 0 0
64 64 64 64 56 56 56 56 56 48 48 56 48 44 48 68 64 56 44 36 32 24 12 12 20 36 76 80 88 88 80 44 32 20 8 8 12 20 20 20 24 36 44 36 36 36 44 76 68 48 32 20 12 8 0 0 8 12 48 36 32 20 8 8 8 8 8 8 8 8 0 0 0 0 0 0 0 0 0 0 8 8 8 8 8 8 20 24 24 20 12 12 12 8 0 0 0 0 0 0 0 0 0
64 68 64 64 64 56 56 56 56 48 48 36 36 48 64 76 76 68 48 48 44 32 20 20 20 24 36 36 56 76 68 56 36 24 20 20 20 24 24 36 44 48 56 48 48 48 36 32 24 24 36 24 36 36 8 8 8 24 76 64 48 32 8 12 20 20 8 8 8 8 0 0 0 0 0 0 0 0 0 0 0 8 8 8 8 8 12 20 20 12 8 8 0 0 0 0 0 0 0 0 0 0 0
68 68 68 68 68 68 64 64 56 56 48 44 48 64 80 88 80 68 68 64 56 48 32 24 20 20 24 24 44 56 64 56 44 32 24 24 24 32 48 56 56 64 88 76 56 36 32 20 20 20 24 12 24 36 36 24 32 48 92 92 68 36 20 48 48 32 8 8 0 0 0 0 0 0 0 0 0 0 0 0 0 0 0 0 0 8 12 12 12 8 0 0 0 0 0 0 0 0 0 0 0 0 8